Tracking 20942 objects as of 9-Jul-2020
HD Live streaming from Space Station
objects crossing your sky now

COSMOS 2251 DEB

Track COSMOS 2251 DEB now!
10-day predictions


NORAD ID: 37996
Int'l Code: 1993-036BQX
Perigee: 747.2 km
Apogee: 1,189.8 km
Inclination: 74.1 °
Period: 104.3 minutes
Semi major axis: 7339 km
RCS: 0.0038 m2 (small)
Launch date: June 16, 1993
Source: Commonwealth of Independent States (former USSR) (CIS)
Launch site: PLESETSK MISSILE AND SPACE COMPLEX (PKMTR)

Note: This is SATELLITE DEBRIS
aabbcc
Your satellite tracking list
Your tracking list is empty




NASA's NSSDC Master Catalog

Two Line Element Set (TLE):
1 37996U 93036BQX 20191.38686093 +.00001615 +00000-0 +11043-2 0  9995
2 37996 074.0776 333.9484 0301570 188.5704 171.0208 13.80713522285938
Source of the keplerian elements: AFSPC